Location: ICStars Ranch
(38.8297°N, 93.7687°W)
Time: 08:52:20
(UTC-06:00)

Daily predictions for brighter satellites

Satellite Brightness Start Highest point End
(mag) Time Altitude Azimuth Time Altitude Azimuth Time Altitude Azimuth
Cosmos 2082 3.7 18:18:02 10° SSW 18:23:39 87° ESE 18:29:19 10° NNE
Cosmos 2333 Rocket 3.4 18:18:22 10° NW 18:23:49 49° WSW 18:29:12 10° S
Cosmos 1674 Rocket 3.9 18:20:25 10° N 18:24:34 42° E 18:28:39 10° SSE
OAO 2 Rocket 4.1 18:20:07 10° SW 18:24:45 40° SSE 18:29:21 10° E
Cosmos 405 2.9 18:26:52 10° S 18:30:21 79° E 18:33:52 10° NNE
Cosmos 1420 Rocket 4.5 18:26:07 10° N 18:31:06 40° ENE 18:36:04 10° SE
Cosmos 921 Rocket 4.4 18:28:20 10° NNE 18:31:45 21° ENE 18:35:07 10° ESE
Cosmos 1908 Rocket 4.2 18:28:03 10° SSE 18:32:07 35° E 18:36:11 10° NNE
YAOGAN 1 3.2 18:29:36 10° S 18:33:53 62° W 18:38:10 10° NNW
Meteor 1-25 Rocket 4.3 18:32:01 10° SSE 18:37:20 51° E 18:42:44 10° NNE
Cosmos 1733 Rocket 3.2 18:33:19 10° S 18:37:38 78° W 18:41:58 10° N
Tiangong 2 1.4 18:35:35 10° WNW 18:38:45 65° SSW 18:41:53 10° ESE
FREGAT/IRIS 3.7 18:38:21 10° SE 18:40:48 24° ENE 18:43:16 10° NNE
Cosmos 1437 Rocket 3.8 18:40:49 10° SSE 18:44:10 25° E 18:47:34 10° NE
EO 1 Del DPAF 3.2 18:40:26 10° NNE 18:44:15 68° ESE 18:48:02 10° S
Cosmos 44 Rocket 3.6 18:41:44 10° NNW 18:46:41 53° NE 18:51:41 10° SE
NOAA 12 4.3 18:44:49 10° S 18:50:06 80° WSW 18:55:28 10° NNW
Landsat 4 3.9 18:48:24 10° N 18:52:09 73° WNW 18:55:53 10° SSW
Gbstr 26 Del rocket 3.7 18:49:56 10° SSW 18:53:08 27° SE 18:55:12 17° E
SeaSat 1 3.6 18:50:15 12° ESE 18:53:42 24° NE 18:57:38 10° N
USA 215 3.5 18:53:35 10° NE 18:59:55 51° SE 19:06:13 10° SSW
Cosmos 1975 Rocket 3.8 18:56:13 10° NNE 19:00:10 31° ENE 19:04:07 10° SE
Envisat 3.7 18:57:43 10° SE 19:02:08 31° ENE 19:06:33 10° N
COSMOS 2455 3.9 18:58:29 10° SSE 19:03:00 23° ESE 19:05:36 17° ENE
Resurs 01 Rocket 3.0 19:06:02 19° ENE 19:06:02 19° ENE 19:09:03 10° NNE
SL-8 R/B 4.5 19:01:52 10° W 19:06:29 47° NNW 19:10:22 14° NE
ALOS 3.9 19:02:37 10° SSW 19:06:58 38° W 19:11:20 10° NNW
CZ-4C R/B 4.2 19:02:32 10° N 19:07:37 20° NE 19:10:41 16° ENE
FengYun 1-2 T 4.1 19:02:53 10° SSE 19:08:23 79° ENE 19:13:53 10° N
HJ-1C 3.7 19:05:20 10° SSE 19:08:36 44° ENE 19:11:53 10° N
OE (NEXTSAT) 4.5 19:06:12 10° SW 19:09:42 59° SSE 19:11:19 28° ENE
Thor Agena Rocket 3.8 19:05:40 10° NNE 19:10:30 43° E 19:15:17 10° S
BREEZE-M DEB (TANK) 3.7 19:09:13 10° SSW 19:11:55 36° ESE 19:15:23 18° ENE
Cosmos 1513 Rocket 4.4 19:05:34 10° N 19:11:55 76° E 19:18:08 10° SSE
Cosmos 44 3.7 19:08:06 10° NW 19:13:09 70° WSW 19:18:25 10° SSE
Cosmos 1269 Rocket 3.9 19:08:41 10° S 19:13:55 67° ESE 19:19:10 10° NNE
USA 32 3.9 19:08:58 10° S 19:14:10 71° E 19:19:22 10° N
Cosmos 1378 Rocket 3.8 19:18:01 10° NNW 19:22:25 71° W 19:26:50 10° S
Cosmos 2227 Rocket 4.4 19:20:11 10° WSW 19:24:41 24° NW 19:29:12 10° N
USA 186 4.2 19:27:59 12° NNE 19:27:59 12° NNE 19:28:24 10° NNE
Cosmos 1633 4.2 19:23:03 10° SSW 19:26:20 35° W 19:29:40 10° N
ATLAS CENTAUR R/B 3.6 19:25:17 10° NNE 19:26:07 12° NNE 19:26:07 12° NNE
SJ-6B 2.6 19:25:04 10° SSE 19:28:48 74° ENE 19:32:39 10° N
Cosmos 1782 Rocket 3.5 19:25:27 10° S 19:29:53 89° W 19:34:20 10° N
H-2A R/B 4.2 19:27:27 10° SSW 19:31:09 40° W 19:34:50 10° NNW
SL-16 R/B 2.8 19:26:07 10° NNW 19:31:40 58° WSW 19:37:11 10° S
Tsikada Rocket 4.0 19:25:32 10° S 19:31:54 73° E 19:38:18 10° N
CENTAUR R/B 3.2 19:26:35 10° SW 19:32:26 55° NW 19:39:10 10° NNE
USA 267 4.4 19:30:04 21° ENE 19:32:43 27° NNE 19:38:00 10° NNW
Sich 1 Rocket 4.3 19:31:33 10° SSW 19:35:58 56° W 19:40:23 10° N
ERS-2 3.1 19:32:57 10° S 19:36:31 48° W 19:40:06 10° NNW
Okean 1 4.2 19:41:23 10° NNW 19:45:16 50° W 19:49:06 10° S
Meteor 1-13 Rocket 4.1 19:39:57 10° N 19:45:27 64° E 19:49:05 21° SSE
CRYOSAT 2 4.4 19:41:54 10° N 19:46:48 80° W 19:51:39 10° S
Cosmos 1331 Rocket 4.1 19:44:28 10° N 19:49:40 52° ENE 19:50:04 51° E
Cosmos 1603 3.6 19:44:46 10° NNW 19:50:24 66° ENE 19:52:03 45° SE
Okean 2 Rocket 3.0 19:46:02 10° S 19:50:25 88° W 19:54:51 10° N
CZ-2D R/B 3.5 19:47:41 15° S 19:50:49 69° W 19:54:42 10° NNW
Spot 2 Rocket 3.9 19:52:33 44° NE 19:52:33 44° NE 19:56:45 10° N
Geosat 3.8 19:54:24 45° NE 19:55:51 69° ESE 20:00:51 10° SSW
Cosmos 2263 Rocket 2.8 20:01:24 10° S 20:04:55 38° SSE 20:04:55 38° SSE
OAO 2 Rocket 3.6 20:04:23 10° WSW 20:08:56 55° SSW 20:08:56 55° SSW
Tiangong 2 4.3 20:14:02 10° WSW 20:14:35 11° SW 20:14:35 11° SW
Meteor 2-4 Rocket 3.9 20:20:14 10° NNW 20:25:59 69° W 20:27:30 48° SSW
Meteor 1-5 Rocket 4.3 20:21:36 10° S 20:27:28 83° W 20:33:28 10° N
Meteor 1-11 Rocket 4.4 20:25:14 10° SSW 20:30:39 53° WNW 20:36:13 10° N
SeaSat 1 3.4 20:30:04 40° SW 20:30:57 44° WSW 20:35:40 10° NW
Cosmos 1634 Rocket 4.1 20:29:40 10° NNW 20:35:49 71° W 20:36:51 59° SSW
Resurs 01 Rocket 3.4 20:43:36 30° WNW 20:43:36 30° WNW 20:46:20 10° NNW
USA 215 4.0 20:40:21 33° NNE 20:42:51 47° NW 20:49:02 10° WSW
COSMOS 2455 3.4 20:42:36 10° SW 20:48:29 54° WNW 20:48:54 53° NW
Cosmos 1943 4.3 20:51:20 10° NNW 20:55:02 41° NW 20:55:02 41° NW
CZ-4C R/B 3.1 20:50:01 10° NNW 20:55:55 61° N 20:55:55 61° N
USA 267 4.2 21:17:24 42° NNW 21:17:24 42° NNW 21:21:32 10° NW
